Epoch 2002 Jan. 6.0 TT = JDT 2452280.5
T 2001 Dec. 30.75470 TT MPC
q 1.5840799 (2000.0) P Q
n 0.15467259 Peri. 163.63336 +0.70841208 -0.67596985
a 3.4371130 Node 240.71007 +0.61866396 +0.73316096
e 0.5391249 Incl. 13.46077 +0.33971639 +0.07442956
P 6.37
From 47 observations 2001 Aug. 1-2014 Sept. 3, mean residual 0".7.
星図
光度変化
m1 = 15.0 + 5 logΔ + 10.0 log r
軌道要素は Dr. Brian G. Marsden の計算によるもので、
M.P.E.C. 2014-R70
に掲載されたものです。
星図は StellaNavigator Ver.2.0 for Windows
(アストロアーツ
編著 / アスキー出版局刊) で作成したものです。
光度グラフはComet for
Windowsで作成したものです。
Copyright(C) Seiichi Yoshida (comet@aerith.net). All rights reserved.